FW6155 Weather Reports


Display with metric or nautical units.
time (UTC)temp
F
wind
direction
speed
MPH
gust
MPH
rain 1hr
in
rain 24hr
in
rain mn
in
humidity
%
barometer
mb
20260509031543 57 0.0 0.0 0.00 0.00 0.00 72 1022.7
20260509030048 58 0.0 0.0 0.00 0.00 0.00 69 1022.5
20260509024545 58 0.0 0.0 0.00 0.00 0.00 68 1022.5
20260509023043 59 0.0 0.0 0.00 0.00 0.00 66 1022.5
20260509021543 59 0.0 0.0 0.00 0.00 0.00 65 1022.5
20260509020041 59 0.0 0.0 0.00 0.00 0.00 65 1022.4
20260509014549 60 0.0 0.0 0.00 0.00 0.00 65 1022.4
20260509013055 60 0.0 0.0 0.00 0.00 0.00 61 1022.4
20260509011548 60 0.0 0.0 0.00 0.00 0.00 60 1022.5
20260509010043 61 0.0 0.0 0.00 0.00 0.00 60 1022.6
20260509004552 61 0.0 0.0 0.00 0.00 0.00 59 1022.8
20260509003044 61 0.0 0.0 0.00 0.00 0.00 59 1022.6
20260509001611 61 0.0 0.0 0.00 0.00 0.00 58 1022.7
20260509000045 61 0.0 0.0 0.00 0.00 0.00 59 1022.6
20260508234544 61 0.0 0.0 0.00 0.00 0.00 59 1022.6
20260508233044 61 0.0 0.0 0.00 0.00 0.00 57 1022.7
20260508231543 61 0.0 0.0 0.00 0.00 0.00 58 1022.7
20260508230042 61 0.0 0.0 0.00 0.00 0.00 57 1022.9
20260508224548 61 0.0 0.0 0.00 0.00 0.00 59 1022.7
20260508223051 60 0.0 0.0 0.00 0.00 0.00 59 1022.7
20260508221547 60 0.0 0.0 0.00 0.00 0.00 61 1022.8
20260508220045 60 0.0 0.0 0.00 0.00 0.00 60 1022.9
20260508214558 60 0.0 0.0 0.00 0.00 0.00 60 1022.8
20260508213041 59 0.0 0.0 0.00 0.00 0.00 59 1022.8
20260508211546 60 0.0 0.0 0.00 0.00 0.00 60 1022.8
20260508210043 58 0.0 0.0 0.00 0.00 0.00 62 1022.8
20260508204545 58 0.0 0.0 0.00 0.00 0.00 61 1022.8
20260508203042 58 0.0 0.0 0.00 0.00 0.00 62 1022.8
20260508201552 57 0.0 0.0 0.00 0.00 0.00 63 1022.6
20260508200053 57 0.0 0.0 0.00 0.00 0.00 64 1022.6
20260508194540 56 0.0 0.0 0.00 0.00 0.00 63 1022.5
20260508193058 56 0.0 0.0 0.00 0.00 0.00 65 1022.5
20260508191555 56 0.0 0.0 0.00 0.00 0.00 68 1022.4
20260508184544 55 0.0 0.0 0.00 0.00 0.00 71 1022.3
20260508183056 55 0.0 0.0 0.00 0.00 0.00 70 1022.3
20260508181541 54 0.0 0.0 0.00 0.00 0.00 71 1021.9
20260508180057 53 0.0 0.0 0.00 0.00 0.00 71 1021.8
20260508174600 53 0.0 0.0 0.00 0.00 0.00 75 1021.8
20260508173043 53 0.0 0.0 0.00 0.00 0.00 76 1021.6
20260508171551 53 0.0 0.0 0.00 0.00 0.00 77 1021.2
20260508170049 53 0.0 0.0 0.00 0.00 0.00 77 1021.0
20260508164550 52 0.0 0.0 0.00 0.00 0.00 77 1020.9
20260508163044 53 0.0 0.0 0.00 0.00 0.00 77 1021.0
20260508161544 53 0.0 0.0 0.00 0.00 0.00 76 1020.7
20260508160043 53 0.0 0.0 0.00 0.00 0.00 75 1020.8
20260508154542 52 0.0 0.0 0.00 0.00 0.00 78 1020.7
20260508153054 52 0.0 0.0 0.00 0.00 0.00 79 1021.0
20260508151546 52 0.0 0.0 0.00 0.00 0.00 79 1021.0
20260508150044 52 0.0 0.0 0.00 0.00 0.00 79 1020.9
20260508144550 51 0.0 0.0 0.00 0.00 0.00 82 1020.7
20260508143044 51 0.0 0.0 0.00 0.00 0.00 82 1020.4
20260508141545 51 0.0 0.0 0.00 0.00 0.00 83 1019.9
20260508140048 51 0.0 0.0 0.00 0.00 0.00 83 1019.6
20260508134544 51 0.0 0.0 0.00 0.00 0.00 83 1019.4
20260508133041 51 0.0 0.0 0.00 0.00 0.00 84 1019.0
20260508131555 51 0.0 0.0 0.00 0.00 0.00 84 1018.9
20260508130041 51 0.0 0.0 0.00 0.00 0.00 84 1018.7
20260508124549 51 0.0 0.0 0.00 0.00 0.00 85 1018.6
20260508123047 51 0.0 0.0 0.00 0.00 0.00 85 1018.6
20260508121543 51 0.0 0.0 0.00 0.00 0.00 84 1018.6
20260508120059 51 0.0 0.0 0.00 0.00 0.00 85 1018.4
20260508114553 51 0.0 0.0 0.00 0.00 0.00 85 1018.3
20260508113053 51 0.0 0.0 0.00 0.00 0.00 86 1018.3
20260508111546 51 0.0 0.0 0.00 0.00 0.00 85 1018.1
20260508110044 51 0.0 0.0 0.00 0.00 0.00 86 1018.0
20260508104546 51 0.0 0.0 0.00 0.00 0.00 86 1017.9
20260508103059 51 0.0 0.0 0.00 0.00 0.00 86 1017.8
20260508101553 51 0.0 0.0 0.00 0.00 0.00 86 1017.7
20260508100045 51 0.0 0.0 0.00 0.00 0.00 86 1017.6
20260508094543 51 0.0 0.0 0.00 0.00 0.00 86 1017.6
20260508093043 51 0.0 0.0 0.00 0.00 0.00 86 1017.6
20260508091541 51 0.0 0.0 0.00 0.00 0.00 86 1017.6
20260508090057 51 0.0 0.0 0.00 0.00 0.00 86 1017.4
20260508084545 51 0.0 0.0 0.00 0.00 0.00 86 1017.5
20260508083048 51 0.0 0.0 0.00 0.00 0.00 86 1017.5
20260508081544 52 0.0 0.0 0.00 0.00 0.00 85 1017.4
20260508080047 52 0.0 0.0 0.00 0.00 0.00 85 1017.4
20260508074550 52 0.0 0.0 0.00 0.00 0.00 84 1017.4
20260508073044 52 0.0 0.0 0.00 0.00 0.00 84 1017.5
20260508071544 52 0.0 0.0 0.00 0.00 0.00 83 1017.5
20260508070051 53 0.0 0.0 0.00 0.00 0.00 83 1017.5
20260508064548 53 0.0 0.0 0.00 0.00 0.00 82 1017.5
20260508063103 53 0.0 0.0 0.00 0.00 0.00 82 1017.6
20260508061547 53 0.0 0.0 0.00 0.00 0.00 81 1017.6
20260508060042 53 0.0 0.0 0.00 0.00 0.00 81 1017.7
20260508054539 54 0.0 0.0 0.00 0.00 0.00 80 1017.7
20260508053055 54 0.0 0.0 0.00 0.00 0.00 80 1017.7
20260508051547 54 0.0 0.0 0.00 0.00 0.00 79 1017.7
20260508050044 54 0.0 0.0 0.00 0.00 0.00 78 1017.7
20260508044542 55 0.0 0.0 0.00 0.00 0.00 76 1017.9
20260508043054 55 0.0 0.0 0.00 0.00 0.00 75 1017.9
20260508041552 56 0.0 0.0 0.00 0.00 0.00 75 1017.9
20260508040047 56 0.0 0.0 0.00 0.00 0.00 74 1017.8
20260508034545 57 0.0 0.0 0.00 0.00 0.00 73 1017.7
20260508033044 57 0.0 0.0 0.00 0.00 0.00 72 1017.8